STARLINK-33899, 63799

Orbit data source: Space-Track

STARLINK-33899, 63799 is a payload satellite owned by SpaceX/Seattle (US) in LEO that was launched on Fri, 02 May 2025 UTC via an FALCON 9 launch vehicle from the Air Force Eastern Test Range (AFETR). Payload-class satellites include a variety of spacecraft equipped with specific instruments for various scientific and technological missions. These include communications satellites like Starlink; space stations such as the ISS; scientific satellites like the Hubble; Earth observation satellites from companies like Planet Labs, Umbra, and HawkEye 360; GPS; miniature CubeSats for education and research; and military/defense satellites.

Loading next visibility...
Identifier
63799, 2025-091AA
Orbit
LEO
Country
Flag of USUS
Related business
Manufacturer
SpaceX/Seattle
Mission
Operational Commercial Communications
Bus & Motor
STARLINK V2MO, Unknown motor
Mass
575 kg wet, ~530 kg dry
Launch date (UTC)
2025-05-02 (1 year ago)
Launch vehicle
FALCON 9
Launch site
Air Force Eastern Test Range (AFETR)
Object type
Payload
Rocket body
Debris
Shape & HBR
Box + 2 Pan, 17.7 m
Radar Cross Section
36.964 m², Large (>1 m²)

Expand to show TLE details & history
Last TLE update: 18 hours ago

TLE from 18 hours ago
0 STARLINK-33899
1 63799U 25091AA  26171.08922395  .00010720  00000-0  39850-3 0  9994
2 63799  42.9975 194.1550 0001183 264.8364  95.2352 15.27581690 64676
Epoch: 2026-06-20T02:08Z
TLE epoch observation values (Epoch: 2026-06-20T02:08:28.949Z)
Latitude
-0.00005°
Longitude
-106.27453°
Altitude
482.893 km
Speed
7.626 km/s
True Right ascension
12h 56m 37s
True Declination
0° 00' 00"
Sunlit
Object was in daylight at epoch
Visualization orbit readout
Latitude
Unknown
Longitude
Unknown
Altitude
Unknown
Speed
Unknown
Apparent Right ascension
Unknown
Apparent Declination
Unknown
Sunlit
N/A
Visualization observer readout
Local Sidereal Time
07:16:58
Azimuth
Unknown
Elevation
Unknown
Doppler factor
Unknown
Orbital elements
Apogee altitude
485.802 km
Perigee altitude
484.178 km
Semi-major axis
6,863.127 km
Eccentricity
0.00012
Inclination
42.9975°
RAAN
194.155°
Arg. of periapsis
264.8364°
True anomaly
95.2487°
Mean anomaly
95.2352°
Eccentric anomaly
95.24195°
Mean motion
3.81733 °/min
Orbital period
94.31 mins
BSTAR
0.0003985
Loading maneuver chart data...
Computing Atmospheric mass density...
Loading historical data...
Loading historical data...
Loading historical data...
Loading historical data...
Loading historical data...
Loading historical data...
Loading historical data...

Documentation

Showing up to 5 results
|